This is the latest recevied weather packets stored in our database for station/object 9D9-WX. If no packets are shown the sender has not sent any weather packets the latest 10 day(s).
| Time | Temp. | Humidity | Pressure | Rain* | Wind** | Luminosity | Snow |
|---|---|---|---|---|---|---|---|
| 1788157814 | 69° F | 86% | 740 mmHg | 0 in | - | - | - |
| 1788156915 | 69° F | 86% | 740 mmHg | 0 in | - | - | - |
| 1788156011 | 69° F | 86% | 740 mmHg | 0 in | - | - | - |
| 1788155109 | 69° F | 82% | 740.2 mmHg | 0 in | - | - | - |
| 1788154213 | 69° F | 81% | 740.2 mmHg | 0 in | - | - | - |
| 1788153315 | 69° F | 81% | 740.2 mmHg | 0 in | - | - | - |
| 1788152414 | 70° F | 81% | 740.2 mmHg | 0 in | - | - | - |
| 1788151515 | 70° F | 76% | 740.5 mmHg | 0 in | - | - | - |
| 1788150614 | 70° F | 77% | 740.3 mmHg | 0 in | - | - | - |
| 1788149708 | 70° F | 77% | 740.3 mmHg | 0 in | - | - | - |
| 1788148814 | 70° F | 77% | 740.3 mmHg | 0 in | - | - | - |
| 1788147909 | 71° F | 72% | 739.4 mmHg | 0 in | - | - | - |
| 1788147014 | 71° F | 76% | 739.7 mmHg | 0 in | - | - | - |
| 1788146114 | 71° F | 76% | 739.7 mmHg | 0 in | - | - | - |
| 1788145214 | 71° F | 76% | 739.7 mmHg | 0 in | - | - | - |
| 1788144312 | 71° F | 78% | 739.8 mmHg | 0 in | - | - | - |
| 1788143414 | 71° F | 75% | 740.2 mmHg | 0 in | - | - | - |
| 1788142513 | 71° F | 75% | 740.2 mmHg | 0 in | - | - | - |
| 1788141614 | 72° F | 75% | 740.2 mmHg | 0 in | - | - | - |
| 1788140714 | 72° F | 81% | 739.4 mmHg | 0 in | - | - | - |
| 1788139813 | 72° F | 81% | 739.4 mmHg | 0 in | - | - | - |
| 1788138009 | 73° F | 81% | 739.4 mmHg | 0 in | - | - | - |
| 1788137113 | 73° F | 73% | 739.8 mmHg | 0 in | - | - | - |
| 1788136213 | 74° F | 73% | 739.8 mmHg | 0 in | - | - | - |
| 1788135313 | 74° F | 73% | 739.8 mmHg | 0 in | - | - | - |
* Rain latest hour (hover to see other rain measurements)
** Current wind speed in m/s (hover to see current wind gust speed)